Regional Weather Roundup
Issued by NWS

Home | Current Version | Previous Version | Graphics & Text | Print | Product List | Glossary On
Versions: 1 2 3 4 5 6 7 8 9 10 11 12 13 14 15 16 17 18 19 20 21 22 23 24 25 26 27 28 29 30 31 32 33 34 35 36 37 38 39 40 41 42 43 44 45 46 47 48 49 50
000
ASUS43 KDTX 212310
RWRMI
MICHIGAN HOURLY REGIONAL WEATHER ROUNDUP
NATIONAL WEATHER SERVICE DETROIT/PONTIAC MI
600 PM EST WED FEB 21 2018

NOTE: "FAIR" INDICATES FEW OR NO CLOUDS BELOW 12,000 FEET WITH NO
SIGNIFICANT WEATHER AND/OR OBSTRUCTION TO VISIBILITY.

MIZ047>049-052>055-059>063-066>070-074>076-081>083-220000-
SOUTHEAST LOWER MICHIGAN

CITY           SKY/WX    TMP DP  RH WIND       PRES   REMARKS
ADRIAN         FAIR      36  30  79 NE8       30.55R WCI  30
ALMA           FAIR      34  27  74 CALM      30.57R
ANN ARBOR      FAIR      36  29  75 NW9       30.55R WCI  29
BAD AXE        FAIR      30  25  81 NE3       30.58R
CARO           FAIR      32  24  71 CALM      30.57S
DETROIT CITY   FAIR      33  27  78 NE9       30.57R WCI  25
DETROIT        CLOUDY    37  32  82 E8        30.56R WCI  31
FLINT          FAIR      35  25  66 N6        30.56R WCI  30
GROSSE ILE     FAIR      35  32  90 NE9       30.56R WCI  27
HILLSDALE      CLOUDY    36  30  80 N5        30.53R WCI  32
HOWELL         FAIR      34  29  81 CALM      30.55R

CITY           SKY/WX    TMP DP  RH WIND       PRES   REMARKS
JACKSON        MOCLDY    36  29  75 N7        30.55R WCI  30
LAMBERTVILLE   CLOUDY    36  33  90 E7        30.55R WCI  30
LANSING        FAIR      35  27  72 N3        30.57R
LAPEER         FAIR      34  27  74 N3        30.57R
MASON          FAIR      36  27  70 N5        30.56R WCI  32
MONROE         CLOUDY    37  33  88 SE6       30.55R WCI  32
MT. CLEMENS    CLOUDY    32  32  99 NE12      30.56R WCI  23
PONTIAC        CLOUDY    36  27  69 N6        30.53R WCI  31
PORT HOPE        N/A     28  22  78 NE7       30.58R WCI  21
PORT HURON     CLOUDY    30  25  80 NE9       30.59R WCI  22
TRI CITIES     FAIR      35  25  66 N5        30.57R WCI  31
MIDLAND        FAIR      34  23  64 NW3       30.57R
TROY           FAIR      38  29  71 NE7       30.57R WCI  33
SAGINAW HB     FAIR      32  28  86 E3        30.57S
$$
MIZ043>046-050>051-056>058-064>065-071>073-077>080-220000-
SOUTHWEST LOWER MICHIGAN

CITY           SKY/WX    TMP DP  RH WIND       PRES   REMARKS
BATTLE CREEK   MOCLDY    34  27  75 N6        30.56R WCI  29
BENTON HARBOR  FAIR      30  23  75 VRB7      30.59R WCI  23
BIG RAPIDS     FAIR      31  17  57 CALM      30.56R
COLDWATER      CLOUDY    35  32  88 NE7       30.55R WCI  29
FREMONT        FAIR      30  15  54 N6        30.59R WCI  24
HOLLAND        FAIR      31  23  72 N6        30.59R WCI  25
GRAND RAPIDS   CLOUDY    34  25  69 NW7       30.57R WCI  28
IONIA          FAIR      34  26  71 CALM      30.56R
KALAMAZOO      CLOUDY    35  28  75 N6        30.56R WCI  30
LUDINGTON      FAIR      25  18  74 NW3       30.61R
MARSHALL       FAIR      33  28  82 N3        30.54S
MOUNT PLEASANT FAIR      33  22  62 CALM      30.56R
MUSKEGON       MOCLDY    29  19  66 NW7       30.60R WCI  22
SOUTH HAVEN    FAIR      31  25  80 N8        30.59R WCI  23
$$
MIZ016>042-220000-
NORTHERN LOWER MICHIGAN

CITY           SKY/WX    TMP DP  RH WIND       PRES   REMARKS
ALPENA         FAIR      29  17  61 NW5       30.58R WCI  24
BEAVER ISLAND  FAIR      24  15  70 SW5       30.60R WCI  18
BELLAIRE       FAIR      26  19  74 CALM      30.60S
CADILLAC       FAIR      28  17  64 W5        30.52S WCI  22
CHARLEVOIX     FAIR      24  17  75 W6        30.63S WCI  17
FRANKFORT      FAIR      26  16  64 W3        30.62R
GAYLORD        FAIR      23  17  78 W7        30.54R WCI  15
GRAYLING       FAIR      26  16  66 NW3       30.54R
HARBOR SPRINGS MOCLDY    23  15  71 W5        30.60R WCI  17
HOUGHTON LAKE  FAIR      28  18  66 W3        30.56R
MANISTEE       FAIR      25  17  72 NW5       30.61  WCI  19
OSCODA         FAIR      28  20  70 E6        30.58R WCI  22
PELLSTON       CLOUDY    23  15  71 SW7       30.60R WCI  15
ROGERS CITY    FAIR      25  18  72 NW6       30.60R WCI  18
TRAVERSE CITY  MOCLDY    29  15  56 W6        30.58S WCI  23
$$
MIZ007>008-015-220000-
EASTERN UPPER MICHIGAN

CITY           SKY/WX    TMP DP  RH WIND       PRES   REMARKS
KINROSS        FLURRIES  21  15  78 N8        30.58R WCI  11
MACKINAC ISLAN FAIR      22  15  74 W8        30.59R WCI  13
NEWBERRY       CLOUDY    21  13  70 N7        30.57R WCI  13
S. S. MARIE    MIX PCPN  23  15  71 NW7       30.59R WCI  15
MUNISING         N/A     18  13  80 N7        30.58R WCI   9
$$
MIZ004>006-011>014-085-220000-
CENTRAL UPPER MICHIGAN

CITY           SKY/WX    TMP DP  RH WIND       PRES   REMARKS
MANISTIQUE     FAIR      24  16  73 S5        30.58R WCI  18
ESCANABA       FAIR      25  11  55 W3        30.59R
MENOMINEE      FAIR      26  10  50 W5        30.61R WCI  20
SAWYER-GWINN   CLEAR     23   7  50 NW3       30.53R
$$
MIZ001>003-009>011-084-220000-
WESTERN UPPER MICHIGAN

CITY           SKY/WX    TMP DP  RH WIND       PRES   REMARKS
IRON MOUNTAIN  FAIR      25   6  44 W8        30.52R WCI  16
HOUGHTON       FAIR      17   3  54 W8        30.52F WCI   7
COPPER HARBOR    N/A     17   6  62 VRB5      30.55F WCI  10
IRONWOOD       FAIR      20   5  52 W8        30.54S WCI  10
$$

ABBREVIATIONS USED IN REMARKS
   TC - TEMPERATURE IN CELSIUS
  WCI - WIND CHILL INDEX
   HX - HEAT INDEX
  VSB - VISIBILITY




USA.gov is the U.S. government's official web portal to all federal, state and local government web resources and services.